OpenBCM V1.13 (Linux)

Packet Radio Mailbox

DB0FHN

[JN59NK Nuernberg]

 Login: GUEST





  
I6KZR  > KEPLER   03.01.03 09:29l 1460 Lines 39196 Bytes #999 (0) @ WW
BID : 16025_IK6WID
Read: DB0FHN GUEST
Subj: Old Istantrak Keplerians #002
Path: DB0FHN<DB0RGB<OE5XBL<OE3XSR<OK0PCC<OK0NAG<OK0PPL<RZ6HXA<SP7MGD<IK6PYS<
      I6ZLO<IK6WID
Sent: 030102/2301Z @:IK6WID.#AP.IMAR.ITA.EU #:16025 [MONTE URANO]  FBB7.00i
From: I6KZR@IK6WID.#AP.IMAR.ITA.EU
To  : KEPLER@WW


Satellite: OSCAR 7
Catalog number: 07530
Epoch time:      103001.72787133
Element set:     139 
Inclination:      101.7696 deg
RA of node:        49.9504 deg
Eccentricity:    0.0012389
Arg of perigee:   170.1414 deg
Mean anomaly:     189.9901 deg
Mean motion:   12.53563184 rev/day
Decay rate:   -2.9000E-007 rev/day^2
Epoch rev:           28719
Checksum:              308

Satellite: GOES 2
Catalog number: 10061
Epoch time:      102359.35983672
Element set:     32 
Inclination:       14.1180 deg
RA of node:        13.8737 deg
Eccentricity:    0.0014065
Arg of perigee:   196.4899 deg
Mean anomaly:     163.4904 deg
Mean motion:    0.99401889 rev/day
Decay rate:   -3.0500E-006 rev/day^2
Epoch rev:            3828
Checksum:              302

Satellite: GOES 3
Catalog number: 10953
Epoch time:      103001.07118427
Element set:     876 
Inclination:       13.3873 deg
RA of node:        17.5997 deg
Eccentricity:    0.0004450
Arg of perigee:   337.9098 deg
Mean anomaly:      22.0760 deg
Mean motion:    1.00277581 rev/day
Decay rate:   -9.6999E-007 rev/day^2
Epoch rev:            4301
Checksum:              306

Satellite: GOES 6
Catalog number: 14050
Epoch time:      102365.19374659
Element set:     409 
Inclination:       10.3375 deg
RA of node:        35.7955 deg
Eccentricity:    0.0002757
Arg of perigee:   356.3386 deg
Mean anomaly:       3.6439 deg
Mean motion:    1.00286901 rev/day
Decay rate:    5.8000E-007 rev/day^2
Epoch rev:           13014
Checksum:              287

Satellite: OSCAR 10
Catalog number: 14129
Epoch time:      102356.12292339
Element set:     907 
Inclination:       25.8271 deg
RA of node:       174.0668 deg
Eccentricity:    0.6049945
Arg of perigee:   312.5642 deg
Mean anomaly:      10.0639 deg
Mean motion:    2.05871554 rev/day
Decay rate:   -2.6699E-006 rev/day^2
Epoch rev:           11886
Checksum:              321

Satellite: OSCAR 11 (UoSA
Catalog number: 14781
Epoch time:      103001.94793984
Element set:     61 
Inclination:       98.1112 deg
RA of node:       335.5330 deg
Eccentricity:    0.0009773
Arg of perigee:    12.1936 deg
Mean anomaly:     347.9506 deg
Mean motion:   14.77842694 rev/day
Decay rate:    2.0909E-005 rev/day^2
Epoch rev:             920
Checksum:              312

Satellite: NOAA 10
Catalog number: 16969
Epoch time:      103001.94078576
Element set:     669 
Inclination:       98.7260 deg
RA of node:       356.1650 deg
Eccentricity:    0.0011752
Arg of perigee:   224.7270 deg
Mean anomaly:     135.2963 deg
Mean motion:   14.27043840 rev/day
Decay rate:    2.9200E-006 rev/day^2
Epoch rev:           84711
Checksum:              311

Satellite: GOES 7
Catalog number: 17561
Epoch time:      102355.38651376
Element set:     789 
Inclination:        7.4944 deg
RA of node:        55.8496 deg
Eccentricity:    0.0008079
Arg of perigee:   326.4312 deg
Mean anomaly:      34.0198 deg
Mean motion:    1.00298198 rev/day
Decay rate:    1.0200E-006 rev/day^2
Epoch rev:            4115
Checksum:              307

Satellite: COSMOS 1861
Catalog number: 18129
Epoch time:      103001.91344921
Element set:     188 
Inclination:       82.9233 deg
RA of node:       181.7915 deg
Eccentricity:    0.0012449
Arg of perigee:     6.1204 deg
Mean anomaly:     354.0114 deg
Mean motion:   13.72695508 rev/day
Decay rate:    8.9000E-007 rev/day^2
Epoch rev:           77797
Checksum:              316

Satellite: EUTELSAT 1-F4 
Catalog number: 18351
Epoch time:      102352.12522730
Element set:     23 
Inclination:        7.0733 deg
RA of node:        58.7527 deg
Eccentricity:    0.0004962
Arg of perigee:   184.4653 deg
Mean anomaly:     172.0391 deg
Mean motion:    0.96710043 rev/day
Decay rate:   -6.1999E-007 rev/day^2
Epoch rev:            4206
Checksum:              396

Satellite: NOAA 11
Catalog number: 19531
Epoch time:      103001.90742370
Element set:     505 
Inclination:       98.9082 deg
RA of node:        83.4338 deg
Eccentricity:    0.0011570
Arg of perigee:   341.8516 deg
Mean anomaly:      18.2239 deg
Mean motion:   14.14513688 rev/day
Decay rate:    2.5899E-006 rev/day^2
Epoch rev:           73606
Checksum:              309

Satellite: ASTRA 1A
Catalog number: 19688
Epoch time:      102364.86148297
Element set:     551 
Inclination:        1.2492 deg
RA of node:        96.7833 deg
Eccentricity:    0.0003014
Arg of perigee:   182.8793 deg
Mean anomaly:     134.7898 deg
Mean motion:    1.00272573 rev/day
Decay rate:    4.1000E-007 rev/day^2
Epoch rev:            3169
Checksum:              311

Satellite: OSCAR 14 (UOSA
Catalog number: 20437
Epoch time:      103001.74999013
Element set:     136 
Inclination:       98.2793 deg
RA of node:        47.6313 deg
Eccentricity:    0.0011054
Arg of perigee:   349.0550 deg
Mean anomaly:      11.0387 deg
Mean motion:   14.31220486 rev/day
Decay rate:    1.9700E-006 rev/day^2
Epoch rev:           67565
Checksum:              290

Satellite: OSCAR 15 (UOSA
Catalog number: 20438
Epoch time:      103001.66491978
Element set:     766 
Inclination:       98.2537 deg
RA of node:        36.8871 deg
Eccentricity:    0.0010359
Arg of perigee:     1.0685 deg
Mean anomaly:     359.0518 deg
Mean motion:   14.30184041 rev/day
Decay rate:    1.5800E-006 rev/day^2
Epoch rev:           67531
Checksum:              312

Satellite: OSCAR 16 (PACS
Catalog number: 20439
Epoch time:      103001.70279447
Element set:     835 
Inclination:       98.3256 deg
RA of node:        58.9882 deg
Eccentricity:    0.0011425
Arg of perigee:   355.6186 deg
Mean anomaly:       4.4880 deg
Mean motion:   14.31450481 rev/day
Decay rate:    1.9399E-006 rev/day^2
Epoch rev:           67568
Checksum:              337

Satellite: OSCAR 17 (DOVE
Catalog number: 20440
Epoch time:      103001.70097800
Element set:     744 
Inclination:       98.3449 deg
RA of node:        62.7687 deg
Eccentricity:    0.0011472
Arg of perigee:   354.0781 deg
Mean anomaly:       6.0260 deg
Mean motion:   14.31727624 rev/day
Decay rate:    3.0799E-006 rev/day^2
Epoch rev:           67575
Checksum:              307

Satellite: OSCAR 18 (WEBE
Catalog number: 20441
Epoch time:      103001.96592240
Element set:     992 
Inclination:       98.3424 deg
RA of node:        62.2649 deg
Eccentricity:    0.0011724
Arg of perigee:   354.9291 deg
Mean anomaly:       5.1776 deg
Mean motion:   14.31533893 rev/day
Decay rate:    2.6499E-006 rev/day^2
Epoch rev:           67577
Checksum:              330

Satellite: OSCAR 19 (LUSA
Catalog number: 20442
Epoch time:      103001.67021018
Element set:     934 
Inclination:       98.3552 deg
RA of node:        64.9177 deg
Eccentricity:    0.0012280
Arg of perigee:   354.0461 deg
Mean anomaly:       6.0564 deg
Mean motion:   14.31695949 rev/day
Decay rate:    2.8100E-006 rev/day^2
Epoch rev:           67578
Checksum:              299

Satellite: JAS 1B (FUJI 2
Catalog number: 20480
Epoch time:      103001.91304912
Element set:     479 
Inclination:       99.0398 deg
RA of node:       333.6410 deg
Eccentricity:    0.0540944
Arg of perigee:   111.7542 deg
Mean anomaly:     254.2028 deg
Mean motion:   12.83327456 rev/day
Decay rate:    9.9999E-009 rev/day^2
Epoch rev:           60440
Checksum:              315

Satellite: HST
Catalog number: 20580
Epoch time:      103001.10995376
Element set:     283 
Inclination:       28.4672 deg
RA of node:       352.8393 deg
Eccentricity:    0.0004303
Arg of perigee:   122.8333 deg
Mean anomaly:     319.6121 deg
Mean motion:   14.97597227 rev/day
Decay rate:    1.8709E-005 rev/day^2
Epoch rev:           49536
Checksum:              415

Satellite: EUTELSAT 2-F1
Catalog number: 20777
Epoch time:      102363.88046470
Element set:     9 
Inclination:        3.3773 deg
RA of node:        85.0294 deg
Eccentricity:    0.0001628
Arg of perigee:   236.2766 deg
Mean anomaly:     169.8068 deg
Mean motion:    1.00384072 rev/day
Decay rate:   -1.1800E-006 rev/day^2
Epoch rev:            2559
Checksum:              297

Satellite: FENGYUN 1B
Catalog number: 20788
Epoch time:      103001.93740590
Element set:     903 
Inclination:       99.0204 deg
RA of node:       344.5972 deg
Eccentricity:    0.0015773
Arg of perigee:     2.7994 deg
Mean anomaly:     357.3256 deg
Mean motion:   14.02136092 rev/day
Decay rate:    4.9499E-006 rev/day^2
Epoch rev:           63086
Checksum:              322

Satellite: EUTELSAT 2-F2
Catalog number: 21056
Epoch time:      102363.89428382
Element set:     603 
Inclination:        2.6092 deg
RA of node:        88.4131 deg
Eccentricity:    0.0002415
Arg of perigee:   217.3203 deg
Mean anomaly:     162.7392 deg
Mean motion:    1.00269142 rev/day
Decay rate:    1.2799E-006 rev/day^2
Epoch rev:            3137
Checksum:              272

Satellite: INFORMATOR 1
Catalog number: 21087
Epoch time:      103001.96562681
Element set:     610 
Inclination:       82.9413 deg
RA of node:       352.6596 deg
Eccentricity:    0.0036736
Arg of perigee:    24.7016 deg
Mean anomaly:     335.5889 deg
Mean motion:   13.74921355 rev/day
Decay rate:    7.4000E-007 rev/day^2
Epoch rev:           59834
Checksum:              317

Satellite: COSMOS 2123
Catalog number: 21089
Epoch time:      103001.85684927
Element set:     491 
Inclination:       82.9239 deg
RA of node:       216.7761 deg
Eccentricity:    0.0030885
Arg of perigee:    59.5295 deg
Mean anomaly:     300.8903 deg
Mean motion:   13.74398696 rev/day
Decay rate:    4.4999E-007 rev/day^2
Epoch rev:           59723
Checksum:              372

